TimeCST,TemperatureF,Dew PointF,Humidity,Sea Level PressureIn,VisibilityMPH,Wind Direction,Wind SpeedMPH,Gust SpeedMPH,PrecipitationIn,Events,Conditions,WindDirDegrees,DateUTC
12:15 AM,33.8,26.6,75,29.88,4.0,WNW,11.5,-,N/A,Snow,Light Snow,300,2013-02-28 06:15:00
12:35 AM,33.8,26.6,75,29.88,5.0,WNW,10.4,-,N/A,Snow,Light Snow,290,2013-02-28 06:35:00
12:55 AM,33.8,26.6,75,29.89,7.0,WNW,11.5,-,N/A,,Overcast,300,2013-02-28 06:55:00
1:15 AM,33.8,26.6,75,29.89,7.0,WNW,11.5,-,N/A,,Overcast,300,2013-02-28 07:15:00
1:35 AM,33.8,26.6,75,29.89,10.0,NW,10.4,18.4,N/A,,Overcast,310,2013-02-28 07:35:00
1:55 AM,33.8,26.6,75,29.89,10.0,NW,11.5,-,N/A,,Overcast,310,2013-02-28 07:55:00
2:15 AM,33.8,26.6,75,29.90,10.0,NW,10.4,-,N/A,,Overcast,310,2013-02-28 08:15:00
2:35 AM,33.8,26.6,75,29.90,10.0,NW,11.5,-,N/A,,Overcast,310,2013-02-28 08:35:00
3:15 AM,33.8,24.8,70,29.90,10.0,NW,12.7,-,N/A,,Overcast,310,2013-02-28 09:15:00
3:55 AM,33.8,24.8,70,29.91,10.0,NW,12.7,-,N/A,,Overcast,310,2013-02-28 09:55:00
4:35 AM,32.0,24.8,75,29.92,7.0,NW,11.5,-,N/A,Snow,Light Snow,310,2013-02-28 10:35:00
4:55 AM,32.0,24.8,75,29.93,7.0,NW,10.4,-,N/A,Snow,Light Snow,310,2013-02-28 10:55:00
5:15 AM,32.0,24.8,75,29.95,7.0,NW,11.5,18.4,N/A,,Overcast,310,2013-02-28 11:15:00
5:35 AM,30.2,23.0,75,29.96,7.0,NW,12.7,17.3,N/A,,Overcast,310,2013-02-28 11:35:00
5:55 AM,30.2,23.0,75,29.96,7.0,NW,10.4,16.1,N/A,,Overcast,310,2013-02-28 11:55:00
6:15 AM,30.2,23.0,75,29.97,7.0,NW,10.4,-,N/A,,Overcast,310,2013-02-28 12:15:00
6:35 AM,30.2,23.0,75,29.97,7.0,NW,10.4,16.1,N/A,,Overcast,310,2013-02-28 12:35:00
6:55 AM,30.2,21.2,69,29.98,7.0,NW,10.4,-,N/A,,Overcast,320,2013-02-28 12:55:00
7:15 AM,30.2,21.2,69,29.99,7.0,NW,11.5,17.3,N/A,,Overcast,310,2013-02-28 13:15:00
7:35 AM,30.2,21.2,69,30.00,5.0,NW,12.7,-,N/A,Snow,Light Snow,320,2013-02-28 13:35:00
7:55 AM,30.2,21.2,69,30.01,7.0,NW,9.2,-,N/A,,Overcast,310,2013-02-28 13:55:00
8:15 AM,30.2,23.0,75,30.01,7.0,NW,9.2,-,N/A,,Overcast,320,2013-02-28 14:15:00
8:35 AM,30.2,23.0,75,30.02,5.0,NW,9.2,16.1,N/A,Snow,Light Snow,320,2013-02-28 14:35:00
8:55 AM,30.2,23.0,75,30.02,5.0,NW,6.9,-,N/A,Snow,Light Snow,310,2013-02-28 14:55:00
9:15 AM,32.0,23.0,69,30.03,5.0,NW,8.1,17.3,N/A,Snow,Light Snow,320,2013-02-28 15:15:00
9:35 AM,33.8,24.8,70,30.03,5.0,NW,12.7,16.1,0.01,Snow,Light Snow,320,2013-02-28 15:35:00
9:55 AM,33.8,24.8,70,30.03,4.0,NW,8.1,18.4,0.01,Snow,Light Snow,320,2013-02-28 15:55:00
10:15 AM,33.8,24.8,70,30.04,4.0,NW,8.1,-,N/A,Snow,Light Snow,320,2013-02-28 16:15:00
10:35 AM,33.8,24.8,70,30.04,5.0,NW,10.4,16.1,N/A,Snow,Light Snow,320,2013-02-28 16:35:00
10:55 AM,33.8,24.8,70,30.04,7.0,NW,12.7,-,N/A,,Overcast,320,2013-02-28 16:55:00
11:15 AM,33.8,24.8,70,30.04,7.0,NW,10.4,-,N/A,,Overcast,320,2013-02-28 17:15:00
11:35 AM,33.8,24.8,70,30.05,10.0,NW,10.4,-,N/A,,Overcast,320,2013-02-28 17:35:00
11:55 AM,35.6,24.8,65,30.05,10.0,NW,10.4,17.3,N/A,,Overcast,320,2013-02-28 17:55:00
12:15 PM,35.6,24.8,65,30.06,10.0,NW,11.5,18.4,N/A,,Overcast,310,2013-02-28 18:15:00
12:35 PM,35.6,24.8,65,30.06,10.0,NW,11.5,-,N/A,,Overcast,320,2013-02-28 18:35:00
12:55 PM,35.6,24.8,65,30.06,10.0,NW,11.5,-,N/A,,Overcast,320,2013-02-28 18:55:00
1:15 PM,35.6,24.8,65,30.05,10.0,NNW,10.4,-,N/A,,Overcast,330,2013-02-28 19:15:00
1:35 PM,35.6,24.8,65,30.05,10.0,NW,12.7,17.3,N/A,,Overcast,320,2013-02-28 19:35:00
1:55 PM,35.6,24.8,65,30.06,10.0,NW,11.5,-,N/A,Snow,Light Snow,320,2013-02-28 19:55:00
2:15 PM,35.6,24.8,65,30.06,10.0,NW,11.5,-,N/A,,Overcast,320,2013-02-28 20:15:00
2:35 PM,35.6,24.8,65,30.06,10.0,NW,11.5,17.3,N/A,,Overcast,320,2013-02-28 20:35:00
2:55 PM,35.6,24.8,65,30.07,10.0,NW,6.9,-,N/A,,Overcast,310,2013-02-28 20:55:00
3:35 PM,35.6,24.8,65,30.07,10.0,NW,11.5,-,N/A,Snow,Light Snow,310,2013-02-28 21:35:00
3:55 PM,35.6,26.6,70,30.07,5.0,NW,8.1,-,N/A,Snow,Light Snow,320,2013-02-28 21:55:00
4:15 PM,35.6,26.6,70,30.08,1.5,NW,9.2,-,N/A,Snow,Light Snow,320,2013-02-28 22:15:00
4:35 PM,35.6,26.6,70,30.08,2.0,NW,10.4,-,N/A,Snow,Light Snow,310,2013-02-28 22:35:00
4:55 PM,35.6,26.6,70,30.08,2.5,NW,8.1,-,N/A,Snow,Light Snow,310,2013-02-28 22:55:00
5:15 PM,35.6,26.6,70,30.09,2.5,NW,10.4,16.1,N/A,Snow,Light Snow,310,2013-02-28 23:15:00
5:35 PM,33.8,26.6,75,30.09,2.0,NW,5.8,-,N/A,Snow,Light Snow,310,2013-02-28 23:35:00
6:15 PM,33.8,26.6,75,30.10,3.0,WNW,9.2,-,N/A,Snow,Light Snow,300,2013-03-01 00:15:00
6:35 PM,33.8,26.6,75,30.10,2.5,WNW,6.9,-,N/A,Snow,Light Snow,300,2013-03-01 00:35:00
6:55 PM,33.8,26.6,75,30.11,3.0,NW,6.9,-,N/A,Snow,Light Snow,310,2013-03-01 00:55:00
7:15 PM,33.8,24.8,70,30.11,3.0,NW,6.9,-,N/A,Snow,Light Snow,320,2013-03-01 01:15:00
7:35 PM,33.8,24.8,70,30.11,3.0,NW,9.2,-,N/A,Snow,Light Snow,310,2013-03-01 01:35:00
7:55 PM,33.8,24.8,70,30.11,2.5,NW,10.4,-,N/A,Snow,Light Snow,310,2013-03-01 01:55:00
8:15 PM,33.8,24.8,70,30.11,4.0,NW,10.4,16.1,N/A,Snow,Light Snow,320,2013-03-01 02:15:00
8:35 PM,32.0,24.8,75,30.11,4.0,NW,9.2,-,N/A,Snow,Light Snow,320,2013-03-01 02:35:00
8:55 PM,32.0,24.8,75,30.11,7.0,NW,8.1,-,N/A,Snow,Light Snow,320,2013-03-01 02:55:00
9:15 PM,32.0,24.8,75,30.11,7.0,NW,9.2,-,N/A,Snow,Light Snow,320,2013-03-01 03:15:00
9:35 PM,32.0,24.8,75,30.12,7.0,NW,10.4,-,N/A,Snow,Light Snow,320,2013-03-01 03:35:00
9:55 PM,30.2,24.8,80,30.12,5.0,NW,9.2,-,N/A,Snow,Light Snow,320,2013-03-01 03:55:00
10:15 PM,30.2,24.8,80,30.12,4.0,NW,9.2,-,N/A,Snow,Light Snow,320,2013-03-01 04:15:00
10:35 PM,30.2,23.0,75,30.11,3.0,NNW,9.2,-,N/A,Snow,Light Snow,330,2013-03-01 04:35:00
10:55 PM,30.2,23.0,75,30.11,2.0,NW,6.9,-,N/A,Snow,Light Snow,320,2013-03-01 04:55:00
11:35 PM,30.2,23.0,75,30.11,2.5,NW,8.1,-,N/A,Snow,Light Snow,320,2013-03-01 05:35:00
11:55 PM,30.2,23.0,75,30.10,3.0,NW,6.9,-,N/A,Snow,Light Snow,320,2013-03-01 05:55:00